Year,Month,Day,Hour,Minute,Value (Times are PST for temperature in C)
2010,07,13,00,00,11.20
2010,07,13,00,01,11.20
2010,07,13,00,02,11.20
2010,07,13,00,03,11.20
2010,07,13,00,04,11.20
2010,07,13,00,05,11.20
2010,07,13,00,06,11.20
2010,07,13,00,07,11.20
2010,07,13,00,08,11.20
2010,07,13,00,09,11.20
2010,07,13,00,10,11.20
2010,07,13,00,11,11.20
2010,07,13,00,12,11.20
2010,07,13,00,13,11.20
2010,07,13,00,14,11.20
2010,07,13,00,15,11.20
2010,07,13,00,16,11.20
2010,07,13,00,17,11.20
2010,07,13,00,18,11.20
2010,07,13,00,19,11.20
2010,07,13,00,20,11.20
2010,07,13,00,21,11.20
2010,07,13,00,22,11.20
2010,07,13,00,23,11.10
2010,07,13,00,24,11.10
2010,07,13,00,25,11.10
2010,07,13,00,26,11.10
2010,07,13,00,27,11.10
2010,07,13,00,28,11.10
2010,07,13,00,29,11.10
2010,07,13,00,30,11.10
2010,07,13,00,31,11.10
2010,07,13,00,32,11.10
2010,07,13,00,33,11.10
2010,07,13,00,34,11.10
2010,07,13,00,35,11.10
2010,07,13,00,36,11.10
2010,07,13,00,37,11.10
2010,07,13,00,38,11.10
2010,07,13,00,39,11.10
2010,07,13,00,40,11.10
2010,07,13,00,41,11.10
2010,07,13,00,42,11.10
2010,07,13,00,43,11.10
2010,07,13,00,44,11.10
2010,07,13,00,45,11.10
2010,07,13,00,46,11.10
2010,07,13,00,47,11.10
2010,07,13,00,48,11.10
2010,07,13,00,49,11.10
2010,07,13,00,50,11.10
2010,07,13,00,51,11.10
2010,07,13,00,52,11.10
2010,07,13,00,53,11.10
2010,07,13,00,54,11.10
2010,07,13,00,55,11.10
2010,07,13,00,56,11.10
2010,07,13,00,57,11.10
2010,07,13,00,58,11.10
2010,07,13,00,59,11.10
2010,07,13,01,00,11.10
2010,07,13,01,01,11.10
2010,07,13,01,02,11.10
2010,07,13,01,03,11.10
2010,07,13,01,04,11.10
2010,07,13,01,05,11.10
2010,07,13,01,06,11.10
2010,07,13,01,07,11.10
2010,07,13,01,08,11.10
2010,07,13,01,09,11.10
2010,07,13,01,10,11.10
2010,07,13,01,11,11.10
2010,07,13,01,12,11.10
2010,07,13,01,13,11.10
2010,07,13,01,14,11.10
2010,07,13,01,15,11.10
2010,07,13,01,16,11.10
2010,07,13,01,17,11.10
2010,07,13,01,18,11.10
2010,07,13,01,19,11.10
2010,07,13,01,20,11.00
2010,07,13,01,21,10.90
2010,07,13,01,22,10.90
2010,07,13,01,23,10.90
2010,07,13,01,24,10.90
2010,07,13,01,25,10.90
2010,07,13,01,26,10.90
2010,07,13,01,27,10.90
2010,07,13,01,28,10.90
2010,07,13,01,29,10.90
2010,07,13,01,30,10.90
2010,07,13,01,31,10.90
2010,07,13,01,32,10.90
2010,07,13,01,33,11.00
2010,07,13,01,34,11.00
2010,07,13,01,35,10.90
2010,07,13,01,36,10.90
2010,07,13,01,37,10.90
2010,07,13,01,38,10.90
2010,07,13,01,39,10.90
2010,07,13,01,40,10.90
2010,07,13,01,41,10.90
2010,07,13,01,42,10.90
2010,07,13,01,43,10.90
2010,07,13,01,44,10.90
2010,07,13,01,45,10.90
2010,07,13,01,46,10.90
2010,07,13,01,47,10.90
2010,07,13,01,48,10.80
2010,07,13,01,49,10.80
2010,07,13,01,50,10.80
2010,07,13,01,51,10.70
2010,07,13,01,52,10.70
2010,07,13,01,53,10.70
2010,07,13,01,54,10.70
2010,07,13,01,55,10.60
2010,07,13,01,56,10.60
2010,07,13,01,57,10.60
2010,07,13,01,58,10.60
2010,07,13,01,59,10.60
2010,07,13,02,00,10.60
2010,07,13,02,01,10.60
2010,07,13,02,02,10.60
2010,07,13,02,03,10.60
2010,07,13,02,04,10.60
2010,07,13,02,05,10.60
2010,07,13,02,06,10.60
2010,07,13,02,07,10.60
2010,07,13,02,08,10.60
2010,07,13,02,09,10.60
2010,07,13,02,10,10.60
2010,07,13,02,11,10.60
2010,07,13,02,12,10.60
2010,07,13,02,13,10.60
2010,07,13,02,14,10.60
2010,07,13,02,15,10.60
2010,07,13,02,16,10.60
2010,07,13,02,17,10.60
2010,07,13,02,18,10.60
2010,07,13,02,19,10.60
2010,07,13,02,20,10.60
2010,07,13,02,21,10.50
2010,07,13,02,22,10.40
2010,07,13,02,23,10.40
2010,07,13,02,24,10.40
2010,07,13,02,25,10.40
2010,07,13,02,26,10.40
2010,07,13,02,27,10.40
2010,07,13,02,28,10.40
2010,07,13,02,29,10.40
2010,07,13,02,30,10.40
2010,07,13,02,31,10.40
2010,07,13,02,32,10.40
2010,07,13,02,33,10.40
2010,07,13,02,34,10.40
2010,07,13,02,35,10.40
2010,07,13,02,36,10.40
2010,07,13,02,37,10.40
2010,07,13,02,38,10.40
2010,07,13,02,39,10.40
2010,07,13,02,40,10.40
2010,07,13,02,41,10.40
2010,07,13,02,42,10.30
2010,07,13,02,43,10.30
2010,07,13,02,44,10.30
2010,07,13,02,45,10.30
2010,07,13,02,46,10.30
2010,07,13,02,47,10.20
2010,07,13,02,48,10.20
2010,07,13,02,49,10.20
2010,07,13,02,50,10.10
2010,07,13,02,51,10.10
2010,07,13,02,52,10.10
2010,07,13,02,53,10.00
2010,07,13,02,54,9.90
2010,07,13,02,55,9.90
2010,07,13,02,56,9.90
2010,07,13,02,57,9.90
2010,07,13,02,58,9.90
2010,07,13,02,59,9.80
2010,07,13,03,00,9.80
2010,07,13,03,01,9.80
2010,07,13,03,02,9.70
2010,07,13,03,03,9.70
2010,07,13,03,04,9.70
2010,07,13,03,05,9.70
2010,07,13,03,06,9.70
2010,07,13,03,07,9.70
2010,07,13,03,08,9.70
2010,07,13,03,09,9.60
2010,07,13,03,10,9.60
2010,07,13,03,11,9.60
2010,07,13,03,12,9.60
2010,07,13,03,13,9.60
2010,07,13,03,14,9.60
2010,07,13,03,15,9.60
2010,07,13,03,16,9.60
2010,07,13,03,17,9.60
2010,07,13,03,18,9.60
2010,07,13,03,19,9.60
2010,07,13,03,20,9.60
2010,07,13,03,21,9.60
2010,07,13,03,22,9.60
2010,07,13,03,23,9.60
2010,07,13,03,24,9.60
2010,07,13,03,25,9.60
2010,07,13,03,26,9.60
2010,07,13,03,27,9.60
2010,07,13,03,28,9.60
2010,07,13,03,29,9.60
2010,07,13,03,30,9.60
2010,07,13,03,31,9.60
2010,07,13,03,32,9.60
2010,07,13,03,33,9.60
2010,07,13,03,34,9.60
2010,07,13,03,35,9.60
2010,07,13,03,36,9.60
2010,07,13,03,37,9.60
2010,07,13,03,38,9.60
2010,07,13,03,39,9.60
2010,07,13,03,40,9.60
2010,07,13,03,41,9.60
2010,07,13,03,42,9.60
2010,07,13,03,43,9.60
2010,07,13,03,44,9.60
2010,07,13,03,45,9.70
2010,07,13,03,46,9.70
2010,07,13,03,47,9.70
2010,07,13,03,48,9.70
2010,07,13,03,49,9.70
2010,07,13,03,50,9.70
2010,07,13,03,51,9.70
2010,07,13,03,52,9.70
2010,07,13,03,53,9.70
2010,07,13,03,54,9.70
2010,07,13,03,55,9.70
2010,07,13,03,56,9.80
2010,07,13,03,57,9.80
2010,07,13,03,58,9.80
2010,07,13,03,59,9.80
2010,07,13,04,00,9.80
2010,07,13,04,01,9.80
2010,07,13,04,02,9.80
2010,07,13,04,03,9.80
2010,07,13,04,04,9.80
2010,07,13,04,05,9.80
2010,07,13,04,06,9.80
2010,07,13,04,07,9.80
2010,07,13,04,08,9.80
2010,07,13,04,09,9.80
2010,07,13,04,10,9.80
2010,07,13,04,11,9.80
2010,07,13,04,12,9.80
2010,07,13,04,13,9.80
2010,07,13,04,14,9.80
2010,07,13,04,15,9.80
2010,07,13,04,16,9.80
2010,07,13,04,17,9.80
2010,07,13,04,18,9.80
2010,07,13,04,19,9.80
2010,07,13,04,20,9.90
2010,07,13,04,21,9.90
2010,07,13,04,22,9.90
2010,07,13,04,23,9.90
2010,07,13,04,24,9.90
2010,07,13,04,25,9.90
2010,07,13,04,26,9.90
2010,07,13,04,27,9.90
2010,07,13,04,28,9.90
2010,07,13,04,29,9.90
2010,07,13,04,30,9.90
2010,07,13,04,31,9.90
2010,07,13,04,32,9.90
2010,07,13,04,33,9.90
2010,07,13,04,34,9.90
2010,07,13,04,35,9.90
2010,07,13,04,36,9.90
2010,07,13,04,37,9.90
2010,07,13,04,38,9.90
2010,07,13,04,39,9.90
2010,07,13,04,40,9.90
2010,07,13,04,41,9.90
2010,07,13,04,42,9.90
2010,07,13,04,43,9.90
2010,07,13,04,44,9.90
2010,07,13,04,45,9.90
2010,07,13,04,46,9.90
2010,07,13,04,47,9.90
2010,07,13,04,48,9.90
2010,07,13,04,49,9.90
2010,07,13,04,50,9.90
2010,07,13,04,51,9.90
2010,07,13,04,52,9.90
2010,07,13,04,53,9.90
2010,07,13,04,54,9.90
2010,07,13,04,55,9.90
2010,07,13,04,56,9.90
2010,07,13,04,57,9.90
2010,07,13,04,58,9.90
2010,07,13,04,59,9.90
2010,07,13,05,00,9.90
2010,07,13,05,01,9.90
2010,07,13,05,02,9.90
2010,07,13,05,03,9.90
2010,07,13,05,04,9.90
2010,07,13,05,05,9.90
2010,07,13,05,06,9.90
2010,07,13,05,07,9.90
2010,07,13,05,08,9.90
2010,07,13,05,09,9.90
2010,07,13,05,10,9.90
2010,07,13,05,11,9.90
2010,07,13,05,12,9.80
2010,07,13,05,13,9.80
2010,07,13,05,14,9.80
2010,07,13,05,15,9.80
2010,07,13,05,16,9.80
2010,07,13,05,17,9.80
2010,07,13,05,18,9.80
2010,07,13,05,19,9.70
2010,07,13,05,20,9.70
2010,07,13,05,21,9.70
2010,07,13,05,22,9.70
2010,07,13,05,23,9.70
2010,07,13,05,24,9.70
2010,07,13,05,25,9.70
2010,07,13,05,26,9.70
2010,07,13,05,27,9.70
2010,07,13,05,28,9.70
2010,07,13,05,29,9.70
2010,07,13,05,30,9.70
2010,07,13,05,31,9.70
2010,07,13,05,32,9.60
2010,07,13,05,33,9.60
2010,07,13,05,34,9.60
2010,07,13,05,35,9.60
2010,07,13,05,36,9.60
2010,07,13,05,37,9.60
2010,07,13,05,38,9.60
2010,07,13,05,39,9.60
2010,07,13,05,40,9.60
2010,07,13,05,41,9.60
2010,07,13,05,42,9.60
2010,07,13,05,43,9.60
2010,07,13,05,44,9.60
2010,07,13,05,45,9.60
2010,07,13,05,46,9.60
2010,07,13,05,47,9.60
2010,07,13,05,48,9.60
2010,07,13,05,49,9.60
2010,07,13,05,50,9.60
2010,07,13,05,51,9.60
2010,07,13,05,52,9.70
2010,07,13,05,53,9.70
2010,07,13,05,54,9.70
2010,07,13,05,55,9.70
2010,07,13,05,56,9.70
2010,07,13,05,57,9.70
2010,07,13,05,58,9.70
2010,07,13,05,59,9.70
2010,07,13,06,00,9.70
2010,07,13,06,01,9.70
2010,07,13,06,02,9.70
2010,07,13,06,03,9.70
2010,07,13,06,04,9.70
2010,07,13,06,05,9.70
2010,07,13,06,06,9.70
2010,07,13,06,07,9.70
2010,07,13,06,08,9.70
2010,07,13,06,09,9.70
2010,07,13,06,10,9.70
2010,07,13,06,11,9.70
2010,07,13,06,12,9.70
2010,07,13,06,13,9.70
2010,07,13,06,14,9.70
2010,07,13,06,15,9.70
2010,07,13,06,16,9.70
2010,07,13,06,17,9.70
2010,07,13,06,18,9.70
2010,07,13,06,19,9.80
2010,07,13,06,20,9.80
2010,07,13,06,21,9.80
2010,07,13,06,22,9.80
2010,07,13,06,23,9.80
2010,07,13,06,24,9.80
2010,07,13,06,25,9.80
2010,07,13,06,26,9.90
2010,07,13,06,27,9.90
2010,07,13,06,28,9.90
2010,07,13,06,29,9.90
2010,07,13,06,30,9.90
2010,07,13,06,31,9.90
2010,07,13,06,32,9.90
2010,07,13,06,33,9.90
2010,07,13,06,34,9.90
2010,07,13,06,35,9.90
2010,07,13,06,36,10.00
2010,07,13,06,37,10.10
2010,07,13,06,38,10.10
2010,07,13,06,39,10.10
2010,07,13,06,40,10.10
2010,07,13,06,41,10.10
2010,07,13,06,42,10.10
2010,07,13,06,43,10.10
2010,07,13,06,44,10.10
2010,07,13,06,45,10.10
2010,07,13,06,46,10.10
2010,07,13,06,47,10.20
2010,07,13,06,48,10.20
2010,07,13,06,49,10.20
2010,07,13,06,50,10.30
2010,07,13,06,51,10.30
2010,07,13,06,52,10.30
2010,07,13,06,53,10.30
2010,07,13,06,54,10.40
2010,07,13,06,55,10.40
2010,07,13,06,56,10.40
2010,07,13,06,57,10.40
2010,07,13,06,58,10.40
2010,07,13,06,59,10.40
2010,07,13,07,00,10.40
2010,07,13,07,01,10.50
2010,07,13,07,02,10.60
2010,07,13,07,03,10.60
2010,07,13,07,04,10.60
2010,07,13,07,05,10.60
2010,07,13,07,06,10.60
2010,07,13,07,07,10.70
2010,07,13,07,08,10.70
2010,07,13,07,09,10.70
2010,07,13,07,10,10.70
2010,07,13,07,11,10.80
2010,07,13,07,12,10.80
2010,07,13,07,13,10.80
2010,07,13,07,14,10.80
2010,07,13,07,15,10.90
2010,07,13,07,16,10.90
2010,07,13,07,17,10.90
2010,07,13,07,18,10.90
2010,07,13,07,19,10.90
2010,07,13,07,20,10.90
2010,07,13,07,21,10.90
2010,07,13,07,22,10.90
2010,07,13,07,23,10.90
2010,07,13,07,24,10.90
2010,07,13,07,25,10.90
2010,07,13,07,26,10.90
2010,07,13,07,27,10.90
2010,07,13,07,28,10.90
2010,07,13,07,29,10.90
2010,07,13,07,30,10.90
2010,07,13,07,31,10.90
2010,07,13,07,32,10.90
2010,07,13,07,33,10.90
2010,07,13,07,34,10.90
2010,07,13,07,35,10.90
2010,07,13,07,36,10.90
2010,07,13,07,37,10.90
2010,07,13,07,38,10.90
2010,07,13,07,39,10.90
2010,07,13,07,40,10.90
2010,07,13,07,41,10.90
2010,07,13,07,42,10.90
2010,07,13,07,43,10.90
2010,07,13,07,44,10.90
2010,07,13,07,45,11.10
2010,07,13,07,46,11.10
2010,07,13,07,47,11.10
2010,07,13,07,48,11.10
2010,07,13,07,49,11.10
2010,07,13,07,50,11.10
2010,07,13,07,51,11.10
2010,07,13,07,52,11.10
2010,07,13,07,53,11.20
2010,07,13,07,54,11.20
2010,07,13,07,55,11.20
2010,07,13,07,56,11.30
2010,07,13,07,57,11.30
2010,07,13,07,58,11.40
2010,07,13,07,59,11.40
2010,07,13,08,00,11.40
2010,07,13,08,01,11.40
2010,07,13,08,02,11.40
2010,07,13,08,03,11.60
2010,07,13,08,04,11.60
2010,07,13,08,05,11.60
2010,07,13,08,06,11.60
2010,07,13,08,07,11.70
2010,07,13,08,08,11.70
2010,07,13,08,09,11.70
2010,07,13,08,10,11.80
2010,07,13,08,11,11.80
2010,07,13,08,12,11.80
2010,07,13,08,13,11.80
2010,07,13,08,14,11.90
2010,07,13,08,15,11.90
2010,07,13,08,16,12.00
2010,07,13,08,17,12.00
2010,07,13,08,18,12.10
2010,07,13,08,19,12.20
2010,07,13,08,20,12.30
2010,07,13,08,21,12.30
2010,07,13,08,22,12.30
2010,07,13,08,23,12.40
2010,07,13,08,24,12.40
2010,07,13,08,25,12.40
2010,07,13,08,26,12.50
2010,07,13,08,27,12.50
2010,07,13,08,28,12.50
2010,07,13,08,29,12.60
2010,07,13,08,30,12.60
2010,07,13,08,31,12.70
2010,07,13,08,32,12.80
2010,07,13,08,33,12.80
2010,07,13,08,34,12.80
2010,07,13,08,35,12.80
2010,07,13,08,36,12.80
2010,07,13,08,37,12.80
2010,07,13,08,38,12.80
2010,07,13,08,39,12.90
2010,07,13,08,40,12.90
2010,07,13,08,41,12.90
2010,07,13,08,42,13.00
2010,07,13,08,43,13.00
2010,07,13,08,44,13.00
2010,07,13,08,45,13.10
2010,07,13,08,46,13.10
2010,07,13,08,47,13.20
2010,07,13,08,48,13.20
2010,07,13,08,49,13.30
2010,07,13,08,50,13.30
2010,07,13,08,51,13.30
2010,07,13,08,52,13.30
2010,07,13,08,53,13.30
2010,07,13,08,54,13.30
2010,07,13,08,55,13.40
2010,07,13,08,56,13.40
2010,07,13,08,57,13.40
2010,07,13,08,58,13.40
2010,07,13,08,59,13.50
2010,07,13,09,00,13.50
2010,07,13,09,01,13.50
2010,07,13,09,02,13.60
2010,07,13,09,03,13.60
2010,07,13,09,04,13.60
2010,07,13,09,05,13.70
2010,07,13,09,06,13.70
2010,07,13,09,07,13.70
2010,07,13,09,08,13.70
2010,07,13,09,09,13.70
2010,07,13,09,10,13.70
2010,07,13,09,11,13.70
2010,07,13,09,12,13.80
2010,07,13,09,13,13.80
2010,07,13,09,14,13.80
2010,07,13,09,15,13.80
2010,07,13,09,16,13.80
2010,07,13,09,17,13.80
2010,07,13,09,18,13.80
2010,07,13,09,19,13.80
2010,07,13,09,20,13.90
2010,07,13,09,21,13.90
2010,07,13,09,22,13.90
2010,07,13,09,23,13.90
2010,07,13,09,24,13.90
2010,07,13,09,25,13.90
2010,07,13,09,26,13.90
2010,07,13,09,27,14.00
2010,07,13,09,28,14.00
2010,07,13,09,29,14.00
2010,07,13,09,30,14.00
2010,07,13,09,31,14.00
2010,07,13,09,32,14.00
2010,07,13,09,33,14.00
2010,07,13,09,34,14.00
2010,07,13,09,35,14.00
2010,07,13,09,36,14.00
2010,07,13,09,37,14.00
2010,07,13,09,38,14.00
2010,07,13,09,39,14.00
2010,07,13,09,40,14.00
2010,07,13,09,41,14.10
2010,07,13,09,42,14.10
2010,07,13,09,43,14.10
2010,07,13,09,44,14.10
2010,07,13,09,45,14.10
2010,07,13,09,46,14.10
2010,07,13,09,47,14.10
2010,07,13,09,48,14.00
2010,07,13,09,49,14.00
2010,07,13,09,50,14.00
2010,07,13,09,51,14.00
2010,07,13,09,52,14.00
2010,07,13,09,53,14.00
2010,07,13,09,54,14.00
2010,07,13,09,55,14.10
2010,07,13,09,56,14.10
2010,07,13,09,57,14.10
2010,07,13,09,58,14.10
2010,07,13,09,59,14.10
2010,07,13,10,00,14.20
2010,07,13,10,01,14.20
2010,07,13,10,02,14.20
2010,07,13,10,03,14.20
2010,07,13,10,04,14.20
2010,07,13,10,05,14.20
2010,07,13,10,06,14.30
2010,07,13,10,07,14.30
2010,07,13,10,08,14.40
2010,07,13,10,09,14.40
2010,07,13,10,10,14.40
2010,07,13,10,11,14.50
2010,07,13,10,12,14.50
2010,07,13,10,13,14.50
2010,07,13,10,14,14.50
2010,07,13,10,15,14.50
2010,07,13,10,16,14.50
2010,07,13,10,17,14.60
2010,07,13,10,18,14.60
2010,07,13,10,19,14.60
2010,07,13,10,20,14.60
2010,07,13,10,21,14.60
2010,07,13,10,22,14.60
2010,07,13,10,23,14.60
2010,07,13,10,24,14.70
2010,07,13,10,25,14.70
2010,07,13,10,26,14.70
2010,07,13,10,27,14.70
2010,07,13,10,28,14.70
2010,07,13,10,29,14.70
2010,07,13,10,30,14.80
2010,07,13,10,31,14.80
2010,07,13,10,32,14.80
2010,07,13,10,33,14.80
2010,07,13,10,34,14.80
2010,07,13,10,35,14.80
2010,07,13,10,36,14.80
2010,07,13,10,37,14.90
2010,07,13,10,38,14.90
2010,07,13,10,39,14.90
2010,07,13,10,40,15.00
2010,07,13,10,41,15.00
2010,07,13,10,42,15.00
2010,07,13,10,43,15.10
2010,07,13,10,44,15.10
2010,07,13,10,45,15.10
2010,07,13,10,46,15.10
2010,07,13,10,47,15.10
2010,07,13,10,48,15.10
2010,07,13,10,49,15.10
2010,07,13,10,50,15.10
2010,07,13,10,51,15.00
2010,07,13,10,52,15.00
2010,07,13,10,53,15.10
2010,07,13,10,54,15.10
2010,07,13,10,55,15.10
2010,07,13,10,56,15.10
2010,07,13,10,57,15.10
2010,07,13,10,58,15.10
2010,07,13,10,59,15.20
2010,07,13,11,00,15.20
2010,07,13,11,01,15.20
2010,07,13,11,02,15.20
2010,07,13,11,03,15.20
2010,07,13,11,04,15.30
2010,07,13,11,05,15.30
2010,07,13,11,06,15.30
2010,07,13,11,07,15.30
2010,07,13,11,08,15.30
2010,07,13,11,09,15.30
2010,07,13,11,10,15.40
2010,07,13,11,11,15.40
2010,07,13,11,12,15.40
2010,07,13,11,13,15.30
2010,07,13,11,14,15.30
2010,07,13,11,15,15.40
2010,07,13,11,16,15.40
2010,07,13,11,17,15.50
2010,07,13,11,18,15.50
2010,07,13,11,19,15.50
2010,07,13,11,20,15.60
2010,07,13,11,21,15.60
2010,07,13,11,22,15.60
2010,07,13,11,23,15.60
2010,07,13,11,24,15.60
2010,07,13,11,25,15.60
2010,07,13,11,26,15.70
2010,07,13,11,27,15.70
2010,07,13,11,28,15.70
2010,07,13,11,29,15.80
2010,07,13,11,30,15.80
2010,07,13,11,31,15.80
2010,07,13,11,32,15.80
2010,07,13,11,33,15.80
2010,07,13,11,34,15.80
2010,07,13,11,35,15.80
2010,07,13,11,36,15.80
2010,07,13,11,37,15.80
2010,07,13,11,38,15.80
2010,07,13,11,39,15.80
2010,07,13,11,40,15.80
2010,07,13,11,41,15.80
2010,07,13,11,42,15.80
2010,07,13,11,43,15.80
2010,07,13,11,44,15.80
2010,07,13,11,45,15.80
2010,07,13,11,46,15.90
2010,07,13,11,47,15.90
2010,07,13,11,48,15.90
2010,07,13,11,49,15.90
2010,07,13,11,50,15.90
2010,07,13,11,51,16.00
2010,07,13,11,52,16.10
2010,07,13,11,53,16.10
2010,07,13,11,54,16.10
2010,07,13,11,55,16.10
2010,07,13,11,56,16.10
2010,07,13,11,57,16.10
2010,07,13,11,58,16.10
2010,07,13,11,59,16.20
2010,07,13,12,00,16.20
2010,07,13,12,01,16.30
2010,07,13,12,02,16.40
2010,07,13,12,03,16.40
2010,07,13,12,04,16.40
2010,07,13,12,05,16.40
2010,07,13,12,06,16.50
2010,07,13,12,07,16.60
2010,07,13,12,08,16.60
2010,07,13,12,09,16.60
2010,07,13,12,10,16.70
2010,07,13,12,11,16.70
2010,07,13,12,12,16.70
2010,07,13,12,13,16.70
2010,07,13,12,14,16.80
2010,07,13,12,15,16.90
2010,07,13,12,16,17.00
2010,07,13,12,17,17.00
2010,07,13,12,18,17.10
2010,07,13,12,19,17.10
2010,07,13,12,20,17.20
2010,07,13,12,21,17.30
2010,07,13,12,22,17.30
2010,07,13,12,23,17.30
2010,07,13,12,24,17.30
2010,07,13,12,25,17.30
2010,07,13,12,26,17.30
2010,07,13,12,27,17.30
2010,07,13,12,28,17.30
2010,07,13,12,29,17.30
2010,07,13,12,30,17.30
2010,07,13,12,31,17.30
2010,07,13,12,32,17.30
2010,07,13,12,33,17.20
2010,07,13,12,34,17.20
2010,07,13,12,35,17.20
2010,07,13,12,36,17.20
2010,07,13,12,37,17.20
2010,07,13,12,38,17.10
2010,07,13,12,39,17.10
2010,07,13,12,40,17.20
2010,07,13,12,41,17.30
2010,07,13,12,42,17.30
2010,07,13,12,43,17.30
2010,07,13,12,44,17.30
2010,07,13,12,45,17.30
2010,07,13,12,46,17.30
2010,07,13,12,47,17.30
2010,07,13,12,48,17.30
2010,07,13,12,49,17.40
2010,07,13,12,50,17.40
2010,07,13,12,51,17.40
2010,07,13,12,52,17.50
2010,07,13,12,53,17.50
2010,07,13,12,54,17.70
2010,07,13,12,55,17.70
2010,07,13,12,56,17.70
2010,07,13,12,57,17.70
2010,07,13,12,58,17.70
2010,07,13,12,59,17.70
2010,07,13,13,00,17.70
2010,07,13,13,01,17.70
2010,07,13,13,02,17.70
2010,07,13,13,03,17.70
2010,07,13,13,04,17.70
2010,07,13,13,05,17.70
2010,07,13,13,06,17.70
2010,07,13,13,07,17.70
2010,07,13,13,08,17.70
2010,07,13,13,09,17.70
2010,07,13,13,10,17.70
2010,07,13,13,11,17.70
2010,07,13,13,12,17.80
2010,07,13,13,13,17.90
2010,07,13,13,14,17.90
2010,07,13,13,15,17.90
2010,07,13,13,16,18.00
2010,07,13,13,17,18.10
2010,07,13,13,18,18.20
2010,07,13,13,19,18.30
2010,07,13,13,20,18.40
2010,07,13,13,21,18.50
2010,07,13,13,22,18.60
2010,07,13,13,23,18.70
2010,07,13,13,24,18.70
2010,07,13,13,25,18.80
2010,07,13,13,26,18.80
2010,07,13,13,27,18.80
2010,07,13,13,28,18.80
2010,07,13,13,29,18.70
2010,07,13,13,30,18.70
2010,07,13,13,31,18.60
2010,07,13,13,32,18.60
2010,07,13,13,33,18.50
2010,07,13,13,34,18.50
2010,07,13,13,35,18.50
2010,07,13,13,36,18.60
2010,07,13,13,37,18.70
2010,07,13,13,38,18.80
2010,07,13,13,39,18.80
2010,07,13,13,40,18.80
2010,07,13,13,41,18.80
2010,07,13,13,42,18.80
2010,07,13,13,43,18.90
2010,07,13,13,44,18.90
2010,07,13,13,45,18.90
2010,07,13,13,46,19.00
2010,07,13,13,47,19.10
2010,07,13,13,48,19.10
2010,07,13,13,49,19.10
2010,07,13,13,50,19.20
2010,07,13,13,51,19.30
2010,07,13,13,52,19.40
2010,07,13,13,53,19.50
2010,07,13,13,54,19.50
2010,07,13,13,55,19.60
2010,07,13,13,56,19.70
2010,07,13,13,57,19.80
2010,07,13,13,58,19.90
2010,07,13,13,59,19.90
2010,07,13,14,00,19.90
2010,07,13,14,01,19.70
2010,07,13,14,02,19.60
2010,07,13,14,03,19.60
2010,07,13,14,04,19.70
2010,07,13,14,05,19.70
2010,07,13,14,06,19.80
2010,07,13,14,07,19.90
2010,07,13,14,08,19.90
2010,07,13,14,09,20.10
2010,07,13,14,10,20.20
2010,07,13,14,11,20.20
2010,07,13,14,12,20.20
2010,07,13,14,13,20.20
2010,07,13,14,14,20.10
2010,07,13,14,15,19.90
2010,07,13,14,16,19.90
2010,07,13,14,17,19.80
2010,07,13,14,18,19.80
2010,07,13,14,19,19.80
2010,07,13,14,20,19.80
2010,07,13,14,21,19.90
2010,07,13,14,22,20.00
2010,07,13,14,23,20.10
2010,07,13,14,24,20.10
2010,07,13,14,25,20.20
2010,07,13,14,26,20.10
2010,07,13,14,27,20.00
2010,07,13,14,28,19.90
2010,07,13,14,29,19.90
2010,07,13,14,30,19.90
2010,07,13,14,31,19.90
2010,07,13,14,32,19.90
2010,07,13,14,33,19.90
2010,07,13,14,34,19.90
2010,07,13,14,35,19.70
2010,07,13,14,36,19.60
2010,07,13,14,37,19.60
2010,07,13,14,38,19.60
2010,07,13,14,39,19.60
2010,07,13,14,40,19.50
2010,07,13,14,41,19.50
2010,07,13,14,42,19.50
2010,07,13,14,43,19.60
2010,07,13,14,44,19.60
2010,07,13,14,45,19.70
2010,07,13,14,46,19.80
2010,07,13,14,47,19.80
2010,07,13,14,48,19.80
2010,07,13,14,49,19.90
2010,07,13,14,50,19.80
2010,07,13,14,51,19.90
2010,07,13,14,52,19.90
2010,07,13,14,53,19.90
2010,07,13,14,54,19.90
2010,07,13,14,55,19.90
2010,07,13,14,56,20.00
2010,07,13,14,57,20.10
2010,07,13,14,58,20.10
2010,07,13,14,59,20.10
2010,07,13,15,00,20.10
2010,07,13,15,01,20.10
2010,07,13,15,02,20.20
2010,07,13,15,03,20.20
2010,07,13,15,04,20.20
2010,07,13,15,05,20.10
2010,07,13,15,06,20.00
2010,07,13,15,07,19.90
2010,07,13,15,08,19.90
2010,07,13,15,09,19.90
2010,07,13,15,10,19.90
2010,07,13,15,11,19.90
2010,07,13,15,12,19.90
2010,07,13,15,13,19.90
2010,07,13,15,14,20.10
2010,07,13,15,15,20.10
2010,07,13,15,16,20.10
2010,07,13,15,17,20.20
2010,07,13,15,18,20.20
2010,07,13,15,19,20.20
2010,07,13,15,20,20.20
2010,07,13,15,21,20.10
2010,07,13,15,22,20.00
2010,07,13,15,23,19.90
2010,07,13,15,24,19.90
2010,07,13,15,25,19.90
2010,07,13,15,26,20.00
2010,07,13,15,27,20.10
2010,07,13,15,28,20.10
2010,07,13,15,29,20.20
2010,07,13,15,30,20.20
2010,07,13,15,31,20.30
2010,07,13,15,32,20.40
2010,07,13,15,33,20.40
2010,07,13,15,34,20.40
2010,07,13,15,35,20.30
2010,07,13,15,36,20.20
2010,07,13,15,37,20.20
2010,07,13,15,38,20.20
2010,07,13,15,39,20.20
2010,07,13,15,40,20.20
2010,07,13,15,41,20.20
2010,07,13,15,42,20.20
2010,07,13,15,43,20.20
2010,07,13,15,44,20.20
2010,07,13,15,45,20.30
2010,07,13,15,46,20.30
2010,07,13,15,47,20.40
2010,07,13,15,48,20.40
2010,07,13,15,49,20.40
2010,07,13,15,50,20.40
2010,07,13,15,51,20.50
2010,07,13,15,52,20.40
2010,07,13,15,53,20.30
2010,07,13,15,54,20.20
2010,07,13,15,55,20.20
2010,07,13,15,56,20.20
2010,07,13,15,57,20.20
2010,07,13,15,58,20.20
2010,07,13,15,59,20.10
2010,07,13,16,00,20.00
2010,07,13,16,01,19.80
2010,07,13,16,02,19.60
2010,07,13,16,03,19.60
2010,07,13,16,04,19.50
2010,07,13,16,05,19.40
2010,07,13,16,06,19.40
2010,07,13,16,07,19.30
2010,07,13,16,08,19.20
2010,07,13,16,09,19.20
2010,07,13,16,10,19.10
2010,07,13,16,11,19.10
2010,07,13,16,12,19.10
2010,07,13,16,13,19.10
2010,07,13,16,14,19.00
2010,07,13,16,15,18.90
2010,07,13,16,16,18.90
2010,07,13,16,17,18.90
2010,07,13,16,18,18.80
2010,07,13,16,19,18.80
2010,07,13,16,20,18.80
2010,07,13,16,21,18.70
2010,07,13,16,22,18.70
2010,07,13,16,23,18.60
2010,07,13,16,24,18.60
2010,07,13,16,25,18.50
2010,07,13,16,26,18.50
2010,07,13,16,27,18.40
2010,07,13,16,28,18.30
2010,07,13,16,29,18.20
2010,07,13,16,30,18.20
2010,07,13,16,31,18.20
2010,07,13,16,32,18.20
2010,07,13,16,33,18.10
2010,07,13,16,34,18.00
2010,07,13,16,35,17.90
2010,07,13,16,36,17.90
2010,07,13,16,37,17.90
2010,07,13,16,38,17.90
2010,07,13,16,39,17.90
2010,07,13,16,40,17.90
2010,07,13,16,41,17.90
2010,07,13,16,42,17.90
2010,07,13,16,43,17.90
2010,07,13,16,44,18.00
2010,07,13,16,45,18.10
2010,07,13,16,46,18.10
2010,07,13,16,47,18.10
2010,07,13,16,48,18.20
2010,07,13,16,49,18.20
2010,07,13,16,50,18.20
2010,07,13,16,51,18.20
2010,07,13,16,52,18.10
2010,07,13,16,53,18.10
2010,07,13,16,54,18.20
2010,07,13,16,55,18.20
2010,07,13,16,56,18.20
2010,07,13,16,57,18.20
2010,07,13,16,58,18.10
2010,07,13,16,59,18.10
2010,07,13,17,00,18.10
2010,07,13,17,01,18.10
2010,07,13,17,02,18.00
2010,07,13,17,03,17.90
2010,07,13,17,04,17.90
2010,07,13,17,05,17.90
2010,07,13,17,06,18.00
2010,07,13,17,07,18.10
2010,07,13,17,08,18.10
2010,07,13,17,09,18.10
2010,07,13,17,10,18.10
2010,07,13,17,11,18.10
2010,07,13,17,12,18.10
2010,07,13,17,13,18.10
2010,07,13,17,14,17.90
2010,07,13,17,15,17.90
2010,07,13,17,16,17.90
2010,07,13,17,17,17.80
2010,07,13,17,18,17.80
2010,07,13,17,19,17.80
2010,07,13,17,20,17.70
2010,07,13,17,21,17.70
2010,07,13,17,22,17.70
2010,07,13,17,23,17.70
2010,07,13,17,24,17.70
2010,07,13,17,25,17.70
2010,07,13,17,26,17.70
2010,07,13,17,27,17.70
2010,07,13,17,28,17.70
2010,07,13,17,29,17.70